This is the latest recevied weather packets stored in our database for station/object KK4EQF. If no packets are shown the sender has not sent any weather packets the latest 1 day(s).
| Time | Temp. | Humidity | Pressure | Rain* | Wind** | Luminosity | Snow |
|---|---|---|---|---|---|---|---|
| 1777997192 | 27.78° C | 36% | 1016.3 hPa | 0 mm | 0.89 m/s, 34° | - | - |
| 1777997134 | 27.78° C | 36% | 1016.4 hPa | 0 mm | 0.89 m/s, 34° | - | - |
| 1777997076 | 27.78° C | 36% | 1016.4 hPa | 0 mm | 0.89 m/s, 144° | - | - |
| 1777997007 | 27.78° C | 36% | 1016.4 hPa | 0 mm | 0.89 m/s, 76° | - | - |
| 1777996947 | 27.78° C | 35% | 1016.4 hPa | 0 mm | 0.89 m/s, 82° | - | - |
| 1777996883 | 27.78° C | 35% | 1016.4 hPa | 0 mm | 0.89 m/s, 82° | - | - |
| 1777996826 | 27.78° C | 36% | 1016.4 hPa | 0 mm | 0.45 m/s, 83° | - | - |
| 1777996776 | 27.78° C | 33% | 1016.4 hPa | 0 mm | 0.45 m/s, 27° | - | - |
| 1777996701 | 27.78° C | 36% | 1016.3 hPa | 0 mm | 0.89 m/s, 72° | - | - |
| 1777996637 | 27.78° C | 36% | 1016.4 hPa | 0 mm | 0.89 m/s, 72° | - | - |
| 1777996578 | 27.78° C | 37% | 1016.3 hPa | 0 mm | 0.89 m/s, 72° | - | - |
| 1777996519 | 27.78° C | 37% | 1016.4 hPa | 0 mm | 0.89 m/s, 73° | - | - |
| 1777996457 | 27.78° C | 36% | 1016.3 hPa | 0 mm | 0.89 m/s, 107° | - | - |
| 1777996396 | 27.78° C | 36% | 1016.4 hPa | 0 mm | 0.89 m/s, 59° | - | - |
| 1777996347 | 27.78° C | 32% | 1016.4 hPa | 0 mm | 0.89 m/s, 59° | - | - |
| 1777996328 | 27.78° C | 33% | 1016.3 hPa | 0 mm | 0.89 m/s, 71° | - | - |
| 1777996308 | 27.78° C | 33% | 1016.3 hPa | 0 mm | 0.89 m/s, 71° | - | - |
| 1777996154 | 27.78° C | 33% | 1016.3 hPa | 0 mm | 0.89 m/s, 71° | - | - |
| 1777996088 | 27.78° C | 32% | 1016.3 hPa | 0 mm | 0.89 m/s, 84° | - | - |
| 1777996046 | 27.78° C | 34% | 1016.3 hPa | 0 mm | 0.89 m/s, 170° | - | - |
| 1777996027 | 27.78° C | 34% | 1016.3 hPa | 0 mm | 0.89 m/s, 69° | - | - |
| 1777996007 | 27.78° C | 35% | 1016.3 hPa | 0 mm | 0.89 m/s, 70° | - | - |
| 1777995848 | 27.78° C | 35% | 1016.3 hPa | 0 mm | 0.89 m/s, 74° | - | - |
| 1777995787 | 27.78° C | 35% | 1016.3 hPa | 0 mm | 0.89 m/s, 75° | - | - |
| 1777995725 | 27.78° C | 34% | 1016.3 hPa | 0 mm | 0.89 m/s, 101° | - | - |
* Rain latest hour (hover to see other rain measurements)
** Current wind speed in m/s (hover to see current wind gust speed)